Weather History for Beverly, MA

Change the Weather History Date:

Sunday, January 13, 2013

  Actual Average Record
Temperature  
Mean Temperature 48 °F -  
Max Temperature 53 °F 29 °F - (-1)
Min Temperature 42 °F 15 °F - (-1)
Degree Days  
Heating Degree Days 18    
Moisture  
Dew Point 44 °F    
Average Humidity 91    
Maximum Humidity 100    
Minimum Humidity 82    
Precipitation  
Precipitation 0.01 in - - ()
Sea Level Pressure  
Sea Level Pressure 30.07 in    
Wind  
Wind Speed 4 mph (SSW)    
Max Wind Speed 10 mph    
Max Gust Speed -    
Visibility 4 miles    
Events Fog    
Averages and records for this station are not official NWS values.
T = Trace of Precipitation, MM = Missing Value Source: NWS Daily Summary

Daily Weather History Graph

Daily Weather History Graph

Search for Another Location

Airport:

Trip Planner

Search our weather history database for the weather conditions in past years. The results will help you decide how hot, cold, wet, or windy it might be!

Date:

Astronomy

Jan. 13, 2013 Rise Set
Actual Time 7:11 AM EST 4:33 PM EST
Civil Twilight 6:40 AM EST 5:04 PM EST
Nautical Twilight 6:05 AM EST 5:39 PM EST
Astronomical Twilight 5:31 AM EST 6:13 PM EST
Moon 8:04 AM EST (1/13) 7:12 PM EST (1/13)
Length of Visible Light 10h 24m
Length of Day
9h 22m
Waxing Crescent, 5% of the Moon is Illuminated
Jan 13
Waxing Crescent
Jan 18
First Quarter
Jan 26
Full
Feb 3
Last Quarter
Feb 10
New

Hourly Weather History & Observations

Time (EST) Temp. Windchill Dew Point Humidity Pressure Visibility Wind Dir Wind Speed Gust Speed Precip Events Conditions
12:53 AM 43.0 °F 41.3 °F 41.0 °F 93% 30.12 in 0.8 mi SW 3.5 mph - N/A   Mist
1:53 AM 43.0 °F - 41.0 °F 93% 30.13 in 0.5 mi Calm Calm - N/A Fog Fog
2:07 AM 42.8 °F - 41.0 °F 93% 30.14 in 0.2 mi Calm Calm - N/A Fog Fog
2:44 AM 42.8 °F 41.1 °F 41.0 °F 93% 30.13 in 0.5 mi SW 3.5 mph - 0.01 in Fog Fog
2:51 AM 42.8 °F 41.1 °F 41.0 °F 93% 30.13 in 0.2 mi SSW 3.5 mph - 0.01 in Fog Fog
2:53 AM 43.0 °F 41.3 °F 41.0 °F 93% 30.12 in 0.2 mi SSW 3.5 mph - 0.01 in Fog Fog
3:00 AM 42.8 °F 40.1 °F 41.0 °F 93% 30.13 in 0.5 mi SW 4.6 mph - N/A Fog Fog
3:14 AM 42.8 °F 40.1 °F 41.0 °F 93% 30.13 in 1.2 mi SW 4.6 mph - N/A   Overcast
3:31 AM 42.8 °F 39.3 °F 41.0 °F 93% 30.12 in 3.0 mi SSW 5.8 mph - N/A   Overcast
3:53 AM 43.0 °F 40.3 °F 42.1 °F 97% 30.10 in 5.0 mi SSW 4.6 mph - N/A   Overcast
4:16 AM 44.6 °F 42.2 °F 42.8 °F 93% 30.10 in 7.0 mi SSW 4.6 mph - N/A   Overcast
4:53 AM 44.1 °F 41.5 °F 42.1 °F 93% 30.09 in 6.0 mi South 4.6 mph - N/A   Overcast
5:53 AM 44.1 °F - 42.1 °F 93% 30.09 in 6.0 mi Calm Calm - N/A   Overcast
6:16 AM 44.6 °F - 42.8 °F 93% 30.11 in 3.0 mi Calm Calm - N/A   Overcast
6:23 AM 42.8 °F - 42.8 °F 100% 30.11 in 2.0 mi Calm Calm - N/A   Overcast
6:31 AM 42.8 °F - 42.8 °F 100% 30.11 in 1.8 mi Calm Calm - N/A   Overcast
6:53 AM 44.1 °F 41.5 °F 41.0 °F 89% 30.11 in 1.8 mi South 4.6 mph - N/A   Overcast
7:53 AM 44.1 °F - 41.0 °F 89% 30.13 in 1.2 mi Calm Calm - N/A   Overcast
8:20 AM 44.6 °F 43.1 °F 42.8 °F 93% 30.13 in 0.8 mi South 3.5 mph - N/A   Overcast
8:53 AM 44.1 °F 42.5 °F 42.1 °F 93% 30.13 in 0.8 mi SSW 3.5 mph - N/A   Overcast
9:50 AM 46.4 °F 45.2 °F 44.6 °F 93% 30.14 in 2.0 mi SSW 3.5 mph - N/A   Overcast
9:53 AM 46.0 °F 44.8 °F 44.1 °F 93% 30.13 in 2.0 mi SSW 3.5 mph - N/A   Overcast
10:53 AM 46.9 °F - 45.0 °F 93% 30.12 in 1.8 mi Calm Calm - N/A   Overcast
11:53 AM 46.9 °F - 46.0 °F 97% 30.10 in 1.8 mi South 4.6 mph - N/A   Overcast
12:53 PM 48.0 °F - 46.0 °F 93% 30.06 in 1.2 mi South 5.8 mph - N/A   Overcast
1:12 PM 48.2 °F - 46.4 °F 93% 30.06 in 2.5 mi South 5.8 mph - N/A   Overcast
1:24 PM 48.2 °F - 46.4 °F 93% 30.06 in 3.0 mi South 6.9 mph - N/A   Overcast
1:53 PM 50.0 °F - 46.9 °F 89% 30.06 in 5.0 mi SW 6.9 mph - N/A   Overcast
2:13 PM 50.0 °F - 46.4 °F 87% 30.06 in 6.0 mi SSW 6.9 mph - N/A   Overcast
2:53 PM 50.0 °F - 46.9 °F 89% 30.04 in 6.0 mi South 5.8 mph - N/A   Overcast
3:53 PM 50.0 °F - 46.9 °F 89% 30.03 in 7.0 mi South 8.1 mph - N/A   Overcast
4:53 PM 50.0 °F - 46.4 °F 87% 30.03 in 9.0 mi South 8.1 mph - N/A   Overcast
5:53 PM 50.0 °F - 46.9 °F 89% 30.00 in 10.0 mi South 6.9 mph - N/A   Mostly Cloudy
6:30 PM 48.2 °F - 46.4 °F 93% 30.00 in 10.0 mi South 9.2 mph - N/A   Scattered Clouds
6:53 PM 48.9 °F - 46.9 °F 93% 29.99 in 10.0 mi South 8.1 mph - N/A   Clear
7:38 PM 50.0 °F - 46.4 °F 87% 30.00 in 10.0 mi SW 6.9 mph - N/A   Mostly Cloudy
7:53 PM 51.1 °F - 46.9 °F 86% 30.00 in 10.0 mi SW 8.1 mph - N/A   Overcast
8:53 PM 51.1 °F - 46.9 °F 86% 29.99 in 10.0 mi SSW 6.9 mph - N/A   Overcast
9:53 PM 51.1 °F - 46.9 °F 86% 29.98 in 10.0 mi SSW 10.4 mph - N/A   Overcast
10:53 PM 52.0 °F - 46.9 °F 83% 29.97 in 10.0 mi SW 9.2 mph - N/A   Overcast
11:32 PM 53.6 °F - 48.2 °F 82% 29.98 in 10.0 mi SW 9.2 mph - N/A   Overcast
11:53 PM 53.1 °F - 48.0 °F 83% 29.97 in 10.0 mi SW 8.1 mph - N/A   Overcast